Location: Alphaba - Cockrum - Ingrams Mill Volunteer Fire Department Station 2
(34.7915°N, 89.7598°W)
Time: 08:03:27
(UTC+00:00)

Cosmos 1602 Rocket - Pass Details

Date: 11 December 2025
Orbit: 596 x 626 km, 82.5° (Epoch: 24 January)

Event Time Altitude Azimuth Distance (km) Brightness Sun altitude
Rises 23:18:02 0° 353° (N) 2,887 6.8 -6.3°
Reaches altitude 10° 23:20:16 10° 354° (N) 1,973 6.0 -6.7°
Maximum altitude 23:24:39 87° 84° (E) 613 3.5 -7.6°
Drops below altitude 10° 23:28:57 10° 173° (S) 1,940 6.3 -8.4°
Sets 23:31:08 0° 174° (S) 2,835 7.2 -8.8°
